Find Starlink 3898

NORAD ID: 52458 Int'l Des: 2022-049 Owner: SPXS Country: US Constellation: starlink operational
LEOCIRCULAR

現在のビュー

3D地球を読み込み中...

About Starlink 3898

Starlink 3898 (NORAD 52458) is a starlink constellation satellite (v1.5) launched May 6, 2022 by SPXS of US. It operates in LEO, CIRCULAR orbit with a mass of 297.00 kg.

Starlink 3898について

説明を読み込み中...

次回通過

Passes for default location (London). Set your location on the main map for personalized predictions.

高度履歴

Loading altitude history...

軌道要素

1 52458U 22049H 26168.18339366 -.00003342 00000-0 -19203-3 0 9995
2 52458 53.1611 342.3785 0001352 92.7366 267.3780 15.08824365227139
Epoch: Jun 17, 2026 • Age: 19 hours

現在のステータス

高度 543.2 km
速度 7.60 km/s
衛星直下点 42.47°N, 119.55°E
打ち上げ日 May 6, 2022
運用期間 4.1 years
タイプ internet

技術仕様

分類 Payload
質量 297.00 kg
乾燥質量 220.00 kg
総質量 297.00 kg
長さ 0.20 m
直径 2.80 m
スパン 9.00 m
形状 Box + pan
製造者 SPXS
バスタイプ Starlink
フェーズステータス In Orbit
所有者/国 SPXS/US

Most Searched